| time (UTC) | temp F | wind direction | speed MPH | gust MPH | rain 1hr in | rain 24hr in | rain mn in | humidity % | barometer mb |
| 20260831111930 | 0 | 0.0 | 0.0 | 0.00 | 0.00 | 0.00 | 1019.4 | ||
| 20260831111424 | 0 | 0.0 | 0.0 | 0.00 | 0.00 | 0.00 | 1019.3 | ||
| 20260831110423 | 0 | 0.0 | 0.0 | 0.00 | 0.00 | 0.00 | 1019.2 | ||
| 20260831105911 | 0 | 0.0 | 0.0 | 0.00 | 0.00 | 0.00 | 1019.2 | ||
| 20260831105320 | 0 | 0.0 | 0.0 | 0.00 | 0.00 | 0.00 | 1019.3 | ||
| 20260831104726 | 0 | 0.0 | 0.0 | 0.00 | 0.00 | 0.00 | 1019.2 | ||
| 20260831104219 | 0 | 0.0 | 0.0 | 0.00 | 0.00 | 0.00 | 1019.1 | ||
| 20260831103624 | 0 | 0.0 | 0.0 | 0.00 | 0.00 | 0.00 | 1019.2 | ||
| 20260831103028 | 0 | 0.0 | 0.0 | 0.00 | 0.00 | 0.00 | 1019.2 | ||
| 20260831102015 | 0 | 0.0 | 0.0 | 0.00 | 0.00 | 0.00 | 1019.2 | ||
| 20260831101421 | 0 | 0.0 | 0.0 | 0.00 | 0.00 | 0.00 | 1019.1 | ||
| 20260831100908 | 0 | 0.0 | 0.0 | 0.00 | 0.00 | 0.00 | 1019.1 | ||
| 20260831100323 | 0 | 0.0 | 0.0 | 0.00 | 0.00 | 0.00 | 1019.1 | ||
| 20260831095726 | 0 | 0.0 | 0.0 | 0.00 | 0.00 | 0.00 | 1019.1 | ||
| 20260831095220 | 0 | 0.0 | 0.0 | 0.00 | 0.00 | 0.00 | 1019.0 | ||
| 20260831094718 | 0 | 0.0 | 0.0 | 0.00 | 0.00 | 0.00 | 1019.0 | ||
| 20260831094123 | 0 | 0.0 | 0.0 | 0.00 | 0.00 | 0.00 | 1018.9 | ||
| 20260831093528 | 0 | 0.0 | 0.0 | 0.00 | 0.00 | 0.00 | 1018.8 | ||
| 20260831093027 | 0 | 0.0 | 0.0 | 0.00 | 0.00 | 0.00 | 1018.6 | ||
| 20260831092523 | 0 | 0.0 | 0.0 | 0.00 | 0.00 | 0.00 | 1018.6 | ||
| 20260831092022 | 0 | 0.0 | 0.0 | 0.00 | 0.00 | 0.00 | 1018.6 | ||
| 20260831091520 | 0 | 0.0 | 0.0 | 0.00 | 0.00 | 0.00 | 1018.5 | ||
| 20260831090431 | 0 | 0.0 | 0.0 | 0.00 | 0.00 | 0.00 | 1018.6 | ||
| 20260831085329 | 0 | 0.0 | 0.0 | 0.00 | 0.00 | 0.00 | 1018.7 | ||
| 20260831084730 | 0 | 0.0 | 0.0 | 0.00 | 0.00 | 0.00 | 1018.7 | ||
| 20260831084225 | 0 | 0.0 | 0.0 | 0.00 | 0.00 | 0.00 | 1018.6 | ||
| 20260831083715 | 0 | 0.0 | 0.0 | 0.00 | 0.00 | 0.00 | 1018.7 | ||
| 20260831083126 | 0 | 0.0 | 0.0 | 0.00 | 0.00 | 0.00 | 1018.8 | ||
| 20260831082624 | 0 | 0.0 | 0.0 | 0.00 | 0.00 | 0.00 | 1018.9 | ||
| 20260831082118 | 0 | 0.0 | 0.0 | 0.00 | 0.00 | 0.00 | 1018.9 | ||
| 20260831081522 | 0 | 0.0 | 0.0 | 0.00 | 0.00 | 0.00 | 1018.8 | ||
| 20260831081015 | 0 | 0.0 | 0.0 | 0.00 | 0.00 | 0.00 | 1018.8 | ||
| 20260831075920 | 58 | 269 | 0.0 | 0.0 | 0.00 | 0.00 | 0.00 | 96 | 1018.9 |
| 20260831075347 | 58 | 269 | 0.0 | 0.0 | 0.00 | 0.00 | 0.00 | 96 | 1018.7 |
| 20260831074845 | 58 | 269 | 0.0 | 0.0 | 0.00 | 0.00 | 0.00 | 96 | 1018.6 |
| 20260831074331 | 58 | 269 | 0.0 | 0.0 | 0.00 | 0.00 | 0.00 | 96 | 1018.6 |
| 20260831073319 | 58 | 269 | 0.0 | 0.0 | 0.00 | 0.00 | 0.00 | 96 | 1018.7 |
| 20260831072814 | 59 | 269 | 0.0 | 0.0 | 0.00 | 0.00 | 0.00 | 96 | 1018.7 |
| 20260831072307 | 59 | 269 | 0.0 | 0.0 | 0.00 | 0.00 | 0.00 | 96 | 1018.7 |
| 20260831071801 | 59 | 269 | 0.0 | 2.0 | 0.00 | 0.00 | 0.00 | 96 | 1018.8 |
| 20260831071255 | 59 | 269 | 0.0 | 2.0 | 0.00 | 0.00 | 0.00 | 95 | 1018.7 |
| 20260831065739 | 60 | 269 | 0.0 | 0.0 | 0.00 | 0.00 | 0.00 | 96 | 1018.7 |
| 20260831065232 | 60 | 269 | 0.0 | 0.0 | 0.00 | 0.00 | 0.00 | 95 | 1018.7 |
| 20260831064725 | 60 | 269 | 0.0 | 0.0 | 0.00 | 0.00 | 0.00 | 95 | 1018.7 |
| 20260831063207 | 62 | 227 | 0.0 | 0.0 | 0.00 | 0.00 | 0.00 | 95 | 1018.8 |
| 20260831062154 | 62 | 227 | 0.0 | 0.0 | 0.00 | 0.00 | 0.00 | 95 | 1018.9 |
| 20260831061649 | 62 | 227 | 0.0 | 0.0 | 0.00 | 0.00 | 0.00 | 95 | 1018.9 |
| 20260831061143 | 63 | 227 | 0.0 | 0.0 | 0.00 | 0.00 | 0.00 | 95 | 1019.0 |
| 20260831060637 | 63 | 227 | 0.0 | 0.0 | 0.00 | 0.00 | 0.00 | 96 | 1019.0 |
| 20260831060132 | 63 | 227 | 0.0 | 0.0 | 0.00 | 0.00 | 0.00 | 96 | 1019.0 |
| 20260831055625 | 63 | 227 | 0.0 | 0.0 | 0.00 | 0.00 | 0.00 | 96 | 1019.0 |
| 20260831054613 | 64 | 227 | 0.0 | 0.0 | 0.00 | 0.00 | 0.00 | 96 | 1019.0 |
| 20260831054107 | 64 | 227 | 0.0 | 0.0 | 0.00 | 0.00 | 0.00 | 96 | 1019.0 |
| 20260831053601 | 64 | 227 | 0.0 | 0.0 | 0.00 | 0.00 | 0.00 | 96 | 1019.0 |
| 20260831052550 | 64 | 227 | 0.0 | 0.0 | 0.00 | 0.00 | 0.00 | 95 | 1019.0 |
| 20260831052043 | 64 | 227 | 0.0 | 0.0 | 0.00 | 0.00 | 0.00 | 95 | 1019.0 |
| 20260831051536 | 64 | 227 | 0.0 | 0.0 | 0.00 | 0.00 | 0.00 | 96 | 1019.0 |
| 20260831050525 | 64 | 227 | 0.0 | 3.0 | 0.00 | 0.00 | 0.00 | 96 | 1019.0 |
| 20260831050020 | 64 | 227 | 0.0 | 3.0 | 0.00 | 0.00 | 0.00 | 96 | 1019.0 |
| 20260831045513 | 64 | 239 | 0.0 | 3.0 | 0.00 | 0.00 | 0.00 | 96 | 1019.0 |
| 20260831045008 | 64 | 225 | 1.0 | 4.0 | 0.00 | 0.00 | 0.00 | 96 | 1018.9 |
| 20260831044501 | 65 | 221 | 0.0 | 4.0 | 0.00 | 0.00 | 0.00 | 96 | 1019.0 |
| 20260831043955 | 65 | 234 | 0.0 | 3.0 | 0.00 | 0.00 | 0.00 | 96 | 1019.1 |
| 20260831043449 | 65 | 213 | 1.0 | 4.0 | 0.00 | 0.00 | 0.00 | 96 | 1019.1 |
| 20260831042943 | 65 | 215 | 1.0 | 4.0 | 0.00 | 0.00 | 0.00 | 96 | 1019.2 |
| 20260831042437 | 65 | 205 | 1.0 | 4.0 | 0.00 | 0.00 | 0.00 | 96 | 1019.1 |
| 20260831041931 | 65 | 204 | 1.0 | 5.0 | 0.00 | 0.00 | 0.00 | 96 | 1019.1 |
| 20260831040919 | 65 | 203 | 0.0 | 0.0 | 0.00 | 0.00 | 0.00 | 95 | 1019.1 |
| 20260831035907 | 65 | 227 | 1.0 | 4.0 | 0.00 | 0.00 | 0.00 | 95 | 1019.0 |
| 20260831035401 | 65 | 216 | 1.0 | 4.0 | 0.00 | 0.00 | 0.00 | 95 | 1019.1 |
| 20260831034855 | 65 | 218 | 0.0 | 4.0 | 0.00 | 0.00 | 0.00 | 95 | 1019.0 |
| 20260831034350 | 65 | 224 | 0.0 | 0.0 | 0.00 | 0.00 | 0.00 | 95 | 1018.9 |
| 20260831033844 | 65 | 202 | 0.0 | 1.0 | 0.00 | 0.00 | 0.00 | 95 | 1018.9 |
| 20260831033341 | 65 | 203 | 0.0 | 1.0 | 0.00 | 0.00 | 0.00 | 95 | 1018.8 |
| 20260831032841 | 65 | 191 | 0.0 | 1.0 | 0.00 | 0.00 | 0.00 | 95 | 1018.8 |
| 20260831032339 | 65 | 191 | 0.0 | 1.0 | 0.00 | 0.00 | 0.00 | 95 | 1018.8 |
| 20260831030839 | 65 | 161 | 0.0 | 0.0 | 0.00 | 0.00 | 0.00 | 95 | 1018.6 |
| 20260831030340 | 65 | 217 | 0.0 | 0.0 | 0.00 | 0.00 | 0.00 | 95 | 1018.6 |
| 20260831025840 | 65 | 217 | 0.0 | 0.0 | 0.00 | 0.00 | 0.00 | 95 | 1018.6 |
| 20260831025339 | 65 | 221 | 0.0 | 0.0 | 0.00 | 0.00 | 0.00 | 95 | 1018.6 |
| 20260831024839 | 65 | 201 | 0.0 | 0.0 | 0.00 | 0.00 | 0.00 | 95 | 1018.5 |
| 20260831024339 | 65 | 212 | 0.0 | 0.0 | 0.00 | 0.00 | 0.00 | 95 | 1018.6 |
| 20260831023839 | 66 | 212 | 0.0 | 1.0 | 0.00 | 0.00 | 0.00 | 95 | 1018.5 |
| 20260831023339 | 66 | 221 | 0.0 | 1.0 | 0.00 | 0.00 | 0.00 | 95 | 1018.5 |
| 20260831022840 | 66 | 245 | 0.0 | 2.0 | 0.00 | 0.00 | 0.00 | 95 | 1018.5 |
| 20260831022337 | 66 | 203 | 0.0 | 2.0 | 0.00 | 0.00 | 0.00 | 94 | 1018.5 |
| 20260831020835 | 66 | 236 | 0.0 | 0.0 | 0.00 | 0.00 | 0.00 | 94 | 1018.4 |
| 20260831020335 | 66 | 213 | 0.0 | 4.0 | 0.00 | 0.00 | 0.00 | 94 | 1018.4 |
| 20260831015833 | 66 | 228 | 0.0 | 4.0 | 0.00 | 0.00 | 0.00 | 94 | 1018.3 |
| 20260831015332 | 66 | 231 | 0.0 | 4.0 | 0.00 | 0.00 | 0.00 | 94 | 1018.4 |
| 20260831014831 | 67 | 218 | 0.0 | 6.0 | 0.00 | 0.00 | 0.00 | 94 | 1018.3 |
| 20260831013830 | 67 | 218 | 2.0 | 6.0 | 0.00 | 0.00 | 0.00 | 94 | 1018.2 |
| 20260831013329 | 67 | 0 | 1.0 | 6.0 | 0.00 | 0.00 | 0.00 | 94 | 1018.1 |
| 20260831011829 | 67 | 190 | 3.0 | 8.0 | 0.00 | 0.00 | 0.00 | 95 | 1018.0 |
| 20260831010830 | 67 | 209 | 2.0 | 6.0 | 0.00 | 0.00 | 0.00 | 94 | 1017.9 |
| 20260831010329 | 66 | 219 | 4.0 | 8.0 | 0.00 | 0.00 | 0.00 | 94 | 1017.9 |
| 20260831005829 | 66 | 221 | 3.0 | 8.0 | 0.00 | 0.00 | 0.00 | 94 | 1017.8 |
| 20260831005329 | 66 | 230 | 3.0 | 5.0 | 0.00 | 0.00 | 0.00 | 94 | 1017.9 |
| 20260831004831 | 66 | 205 | 2.0 | 5.0 | 0.00 | 0.00 | 0.00 | 94 | 1017.9 |
| 20260831004327 | 66 | 0 | 1.0 | 4.0 | 0.00 | 0.00 | 0.00 | 94 | 1017.9 |
| 20260831003828 | 66 | 221 | 1.0 | 4.0 | 0.00 | 0.00 | 0.00 | 94 | 1017.8 |
| 20260831003330 | 66 | 205 | 0.0 | 2.0 | 0.00 | 0.00 | 0.00 | 94 | 1017.7 |
| 20260831002827 | 66 | 223 | 0.0 | 3.0 | 0.00 | 0.00 | 0.00 | 94 | 1017.8 |
| 20260831002327 | 66 | 221 | 0.0 | 3.0 | 0.00 | 0.00 | 0.00 | 93 | 1017.8 |
| 20260831000815 | 67 | 217 | 0.0 | 3.0 | 0.00 | 0.00 | 0.00 | 93 | 1017.3 |
| 20260830235808 | 67 | 218 | 0.0 | 1.0 | 0.00 | 0.00 | 0.00 | 93 | 1017.5 |
| 20260830234804 | 67 | 222 | 0.0 | 0.0 | 0.00 | 0.00 | 0.00 | 93 | 1017.4 |
| 20260830234303 | 67 | 220 | 1.0 | 4.0 | 0.00 | 0.00 | 0.00 | 93 | 1017.3 |
| 20260830233301 | 67 | 232 | 0.0 | 3.0 | 0.00 | 0.00 | 0.00 | 92 | 1017.2 |
| 20260830231759 | 67 | 182 | 2.0 | 8.0 | 0.00 | 0.00 | 0.00 | 92 | 1017.0 |
| 20260830230757 | 68 | 196 | 3.0 | 7.0 | 0.00 | 0.00 | 0.00 | 91 | 1017.1 |
| 20260830225257 | 68 | 182 | 1.0 | 8.0 | 0.00 | 0.00 | 0.00 | 91 | 1017.0 |
| 20260830224757 | 68 | 182 | 1.0 | 8.0 | 0.00 | 0.00 | 0.00 | 91 | 1017.1 |
| 20260830224255 | 68 | 252 | 2.0 | 6.0 | 0.00 | 0.00 | 0.00 | 91 | 1017.1 |
| 20260830223756 | 68 | 220 | 3.0 | 7.0 | 0.00 | 0.00 | 0.00 | 90 | 1017.1 |
| 20260830223255 | 68 | 221 | 4.0 | 8.0 | 0.00 | 0.00 | 0.00 | 90 | 1017.1 |
| 20260830222756 | 68 | 202 | 4.0 | 8.0 | 0.00 | 0.00 | 0.00 | 90 | 1017.1 |
| 20260830222256 | 68 | 205 | 3.0 | 7.0 | 0.00 | 0.00 | 0.00 | 89 | 1017.0 |
| 20260830221756 | 68 | 228 | 2.0 | 8.0 | 0.00 | 0.00 | 0.00 | 89 | 1017.0 |
| 20260830221255 | 68 | 186 | 2.0 | 8.0 | 0.00 | 0.00 | 0.00 | 89 | 1017.0 |
| 20260830220756 | 68 | 161 | 3.0 | 7.0 | 0.00 | 0.00 | 0.00 | 89 | 1017.0 |
| 20260830220255 | 68 | 163 | 4.0 | 9.0 | 0.00 | 0.00 | 0.00 | 88 | 1017.0 |
| 20260830215755 | 68 | 188 | 4.0 | 9.0 | 0.00 | 0.00 | 0.00 | 88 | 1016.9 |
| 20260830215251 | 68 | 205 | 3.0 | 8.0 | 0.00 | 0.00 | 0.00 | 87 | 1016.9 |
| 20260830214751 | 68 | 197 | 3.0 | 8.0 | 0.00 | 0.00 | 0.00 | 87 | 1016.8 |
| 20260830214251 | 68 | 212 | 3.0 | 8.0 | 0.00 | 0.00 | 0.00 | 87 | 1016.8 |
| 20260830213251 | 68 | 205 | 2.0 | 9.0 | 0.00 | 0.00 | 0.00 | 86 | 1016.8 |
| 20260830212251 | 68 | 175 | 4.0 | 9.0 | 0.00 | 0.00 | 0.00 | 85 | 1016.9 |
| 20260830211751 | 68 | 241 | 3.0 | 9.0 | 0.00 | 0.00 | 0.00 | 85 | 1016.8 |
| 20260830211252 | 68 | 223 | 2.0 | 8.0 | 0.00 | 0.00 | 0.00 | 85 | 1016.9 |
| 20260830210747 | 68 | 201 | 1.0 | 5.0 | 0.00 | 0.00 | 0.00 | 85 | 1016.8 |
| 20260830210247 | 68 | 205 | 2.0 | 9.0 | 0.00 | 0.00 | 0.00 | 85 | 1016.9 |
| 20260830205747 | 68 | 207 | 3.0 | 9.0 | 0.00 | 0.00 | 0.00 | 85 | 1016.9 |
| 20260830205247 | 69 | 183 | 2.0 | 6.0 | 0.00 | 0.00 | 0.00 | 87 | 1016.9 |
| 20260830204246 | 68 | 167 | 3.0 | 8.0 | 0.00 | 0.00 | 0.00 | 88 | 1016.6 |
| 20260830203747 | 68 | 183 | 2.0 | 6.0 | 0.00 | 0.00 | 0.00 | 88 | 1016.7 |
| 20260830203247 | 68 | 149 | 1.0 | 5.0 | 0.00 | 0.00 | 0.00 | 89 | 1016.8 |
| 20260830202747 | 68 | 167 | 0.0 | 4.0 | 0.00 | 0.00 | 0.00 | 89 | 1016.8 |
| 20260830202247 | 68 | 215 | 1.0 | 5.0 | 0.00 | 0.00 | 0.00 | 89 | 1016.8 |
| 20260830201247 | 68 | 213 | 1.0 | 4.0 | 0.00 | 0.00 | 0.00 | 89 | 1016.7 |
| 20260830200747 | 68 | 189 | 1.0 | 4.0 | 0.00 | 0.00 | 0.00 | 89 | 1016.8 |
| 20260830200247 | 68 | 189 | 1.0 | 3.0 | 0.00 | 0.00 | 0.00 | 89 | 1016.8 |
| 20260830195746 | 68 | 206 | 1.0 | 4.0 | 0.00 | 0.00 | 0.00 | 89 | 1016.9 |
| 20260830195245 | 68 | 191 | 0.0 | 4.0 | 0.00 | 0.00 | 0.00 | 89 | 1017.0 |
| 20260830194741 | 68 | 220 | 0.0 | 4.0 | 0.00 | 0.00 | 0.00 | 89 | 1016.9 |
| 20260830194241 | 68 | 217 | 3.0 | 8.0 | 0.00 | 0.00 | 0.00 | 90 | 1016.8 |
| 20260830193741 | 67 | 196 | 4.0 | 8.0 | 0.00 | 0.00 | 0.00 | 90 | 1016.8 |
| 20260830193241 | 67 | 184 | 4.0 | 9.0 | 0.00 | 0.00 | 0.00 | 90 | 1016.9 |
| 20260830192740 | 67 | 186 | 4.0 | 9.0 | 0.00 | 0.00 | 0.00 | 91 | 1017.0 |
| 20260830192233 | 67 | 163 | 4.0 | 9.0 | 0.00 | 0.00 | 0.00 | 91 | 1017.0 |
| 20260830191729 | 67 | 227 | 4.0 | 8.0 | 0.00 | 0.00 | 0.00 | 92 | 1017.0 |
| 20260830191227 | 66 | 151 | 4.0 | 9.0 | 0.00 | 0.00 | 0.00 | 92 | 1017.1 |
| 20260830190727 | 66 | 217 | 4.0 | 9.0 | 0.00 | 0.00 | 0.00 | 92 | 1017.1 |
| 20260830190226 | 66 | 0 | 4.0 | 9.0 | 0.00 | 0.00 | 0.00 | 92 | 1017.2 |
| 20260830185725 | 65 | 167 | 5.0 | 9.0 | 0.00 | 0.00 | 0.00 | 92 | 1017.3 |
| 20260830185224 | 65 | 155 | 4.0 | 9.0 | 0.00 | 0.00 | 0.00 | 92 | 1017.2 |
| 20260830184721 | 65 | 226 | 2.0 | 8.0 | 0.00 | 0.00 | 0.00 | 93 | 1017.3 |
| 20260830183718 | 65 | 217 | 1.0 | 6.0 | 0.00 | 0.00 | 0.00 | 92 | 1017.4 |
| 20260830183219 | 65 | 184 | 0.0 | 1.0 | 0.00 | 0.00 | 0.00 | 93 | 1017.4 |
| 20260830182719 | 65 | 0 | 0.0 | 1.0 | 0.00 | 0.00 | 0.00 | 93 | 1017.5 |
| 20260830182218 | 65 | 194 | 1.0 | 5.0 | 0.00 | 0.00 | 0.00 | 92 | 1017.7 |
| 20260830181717 | 65 | 215 | 2.0 | 6.0 | 0.00 | 0.00 | 0.00 | 92 | 1017.7 |
| 20260830181216 | 65 | 227 | 1.0 | 6.0 | 0.00 | 0.00 | 0.00 | 92 | 1017.8 |
| 20260830180717 | 65 | 224 | 0.0 | 5.0 | 0.00 | 0.00 | 0.00 | 92 | 1017.7 |
| 20260830180217 | 65 | 223 | 0.0 | 0.0 | 0.00 | 0.00 | 0.00 | 92 | 1017.9 |
| 20260830175717 | 66 | 346 | 0.0 | 0.0 | 0.00 | 0.00 | 0.00 | 92 | 1018.0 |
| 20260830174702 | 66 | 355 | 1.0 | 4.0 | 0.00 | 0.00 | 0.00 | 91 | 1017.9 |
| 20260830173650 | 66 | 355 | 0.0 | 2.0 | 0.00 | 0.00 | 0.00 | 91 | 1018.0 |
| 20260830173144 | 67 | 355 | 0.0 | 3.0 | 0.00 | 0.00 | 0.00 | 90 | 1018.0 |
| 20260830172645 | 67 | 350 | 0.0 | 3.0 | 0.00 | 0.00 | 0.00 | 90 | 1018.1 |
| 20260830172142 | 67 | 355 | 0.0 | 4.0 | 0.00 | 0.00 | 0.00 | 89 | 1018.1 |
| 20260830171641 | 67 | 338 | 0.0 | 4.0 | 0.00 | 0.00 | 0.00 | 88 | 1018.1 |
| 20260830171141 | 67 | 309 | 0.0 | 2.0 | 0.00 | 0.00 | 0.00 | 88 | 1018.1 |
| 20260830170144 | 68 | 5 | 1.0 | 10.0 | 0.00 | 0.00 | 0.00 | 87 | 1017.9 |
| 20260830165138 | 68 | 205 | 1.0 | 5.0 | 0.00 | 0.00 | 0.00 | 87 | 1018.1 |
| 20260830164639 | 69 | 188 | 1.0 | 6.0 | 0.00 | 0.00 | 0.00 | 86 | 1018.0 |
| 20260830164138 | 69 | 236 | 1.0 | 6.0 | 0.00 | 0.00 | 0.00 | 86 | 1018.0 |
| 20260830163139 | 69 | 33 | 1.0 | 4.0 | 0.00 | 0.00 | 0.00 | 87 | 1017.9 |
| 20260830162638 | 69 | 219 | 1.0 | 4.0 | 0.00 | 0.00 | 0.00 | 86 | 1017.9 |
| 20260830162139 | 69 | 232 | 0.0 | 1.0 | 0.00 | 0.00 | 0.00 | 87 | 1017.8 |
| 20260830161639 | 69 | 168 | 0.0 | 1.0 | 0.00 | 0.00 | 0.00 | 88 | 1017.7 |
| 20260830160633 | 69 | 313 | 0.0 | 2.0 | 0.00 | 0.00 | 0.00 | 89 | 1017.8 |
| 20260830160130 | 69 | 254 | 0.0 | 2.0 | 0.00 | 0.00 | 0.00 | 89 | 1017.8 |
| 20260830155630 | 69 | 324 | 0.0 | 1.0 | 0.00 | 0.00 | 0.00 | 90 | 1017.9 |
| 20260830155124 | 69 | 276 | 0.0 | 1.0 | 0.00 | 0.00 | 0.00 | 89 | 1018.0 |
| 20260830154619 | 69 | 265 | 0.0 | 4.0 | 0.00 | 0.00 | 0.00 | 90 | 1018.1 |
| 20260830154112 | 68 | 186 | 2.0 | 6.0 | 0.00 | 0.00 | 0.00 | 90 | 1018.1 |
| 20260830153606 | 68 | 200 | 2.0 | 7.0 | 0.00 | 0.00 | 0.00 | 91 | 1018.0 |
| 20260830153100 | 68 | 236 | 1.0 | 7.0 | 0.00 | 0.00 | 0.00 | 92 | 1018.1 |
| 20260830152554 | 68 | 231 | 1.0 | 5.0 | 0.00 | 0.00 | 0.00 | 93 | 1018.1 |
| 20260830152048 | 68 | 259 | 2.0 | 9.0 | 0.00 | 0.00 | 0.00 | 93 | 1018.1 |
| 20260830151543 | 68 | 212 | 1.0 | 9.0 | 0.00 | 0.00 | 0.00 | 93 | 1018.1 |
| 20260830151036 | 68 | 212 | 0.0 | 7.0 | 0.00 | 0.00 | 0.00 | 94 | 1018.1 |
| 20260830150530 | 67 | 239 | 2.0 | 5.0 | 0.00 | 0.00 | 0.00 | 94 | 1018.2 |
| 20260830150024 | 67 | 231 | 3.0 | 8.0 | 0.00 | 0.00 | 0.00 | 93 | 1018.2 |
| 20260830145520 | 68 | 180 | 4.0 | 8.0 | 0.00 | 0.00 | 0.00 | 93 | 1018.2 |
| 20260830145012 | 68 | 156 | 3.0 | 7.0 | 0.00 | 0.00 | 0.00 | 94 | 1018.2 |
| 20260830144506 | 68 | 182 | 2.0 | 6.0 | 0.00 | 0.00 | 0.00 | 93 | 1018.1 |
| 20260830144000 | 67 | 178 | 0.0 | 4.0 | 0.00 | 0.00 | 0.00 | 94 | 1018.2 |
| 20260830143455 | 67 | 0 | 1.0 | 5.0 | 0.00 | 0.00 | 0.00 | 93 | 1018.3 |
| 20260830142948 | 67 | 161 | 3.0 | 8.0 | 0.00 | 0.00 | 0.00 | 93 | 1018.3 |
| 20260830142442 | 67 | 219 | 4.0 | 8.0 | 0.00 | 0.00 | 0.00 | 93 | 1018.3 |
| 20260830141936 | 67 | 196 | 2.0 | 8.0 | 0.00 | 0.00 | 0.00 | 93 | 1018.2 |
| 20260830141430 | 67 | 220 | 0.0 | 0.0 | 0.00 | 0.00 | 0.00 | 93 | 1018.2 |
| 20260830140924 | 67 | 338 | 0.0 | 0.0 | 0.00 | 0.00 | 0.00 | 93 | 1018.0 |
| 20260830140418 | 67 | 0 | 0.0 | 0.0 | 0.00 | 0.00 | 0.00 | 92 | 1017.8 |
| 20260830135912 | 67 | 347 | 0.0 | 1.0 | 0.00 | 0.00 | 0.00 | 92 | 1017.8 |
| 20260830135406 | 67 | 355 | 0.0 | 3.0 | 0.00 | 0.00 | 0.00 | 92 | 1017.8 |
| 20260830134900 | 67 | 12 | 0.0 | 3.0 | 0.00 | 0.00 | 0.00 | 92 | 1017.9 |
| 20260830134354 | 67 | 355 | 0.0 | 5.0 | 0.00 | 0.00 | 0.00 | 92 | 1017.8 |
| 20260830133848 | 67 | 355 | 1.0 | 7.0 | 0.00 | 0.00 | 0.00 | 92 | 1017.8 |
| 20260830133342 | 68 | 0 | 2.0 | 8.0 | 0.00 | 0.00 | 0.00 | 92 | 1017.8 |
| 20260830132836 | 68 | 198 | 2.0 | 9.0 | 0.00 | 0.00 | 0.00 | 92 | 1018.0 |
| 20260830131825 | 68 | 219 | 4.0 | 10.0 | 0.00 | 0.00 | 0.00 | 92 | 1018.0 |
| 20260830131318 | 68 | 0 | 4.0 | 10.0 | 0.00 | 0.00 | 0.00 | 92 | 1018.0 |
| 20260830130306 | 68 | 193 | 2.0 | 9.0 | 0.00 | 0.00 | 0.00 | 92 | 1018.0 |
| 20260830125800 | 68 | 168 | 1.0 | 5.0 | 0.00 | 0.00 | 0.00 | 92 | 1018.1 |
| 20260830125255 | 68 | 179 | 2.0 | 5.0 | 0.00 | 0.00 | 0.00 | 92 | 1017.9 |
| 20260830124748 | 68 | 225 | 1.0 | 5.0 | 0.00 | 0.00 | 0.00 | 92 | 1017.9 |
| 20260830124242 | 68 | 211 | 0.0 | 2.0 | 0.00 | 0.00 | 0.00 | 92 | 1017.9 |
| 20260830123736 | 68 | 210 | 0.0 | 5.0 | 0.00 | 0.00 | 0.00 | 92 | 1018.0 |
| 20260830123231 | 68 | 244 | 1.0 | 5.0 | 0.00 | 0.00 | 0.00 | 92 | 1017.9 |
| 20260830122724 | 68 | 219 | 1.0 | 6.0 | 0.00 | 0.00 | 0.00 | 92 | 1017.9 |
| 20260830122221 | 68 | 215 | 1.0 | 6.0 | 0.00 | 0.00 | 0.00 | 92 | 1017.8 |
| 20260830121720 | 67 | 175 | 2.0 | 8.0 | 0.00 | 0.00 | 0.00 | 92 | 1017.8 |
| 20260830121220 | 67 | 244 | 4.0 | 11.0 | 0.00 | 0.00 | 0.00 | 92 | 1017.9 |
| 20260830120720 | 67 | 234 | 4.0 | 11.0 | 0.00 | 0.00 | 0.00 | 92 | 1017.9 |
| 20260830120221 | 67 | 207 | 5.0 | 11.0 | 0.00 | 0.00 | 0.00 | 92 | 1017.9 |
| 20260830115721 | 67 | 222 | 5.0 | 10.0 | 0.00 | 0.00 | 0.00 | 91 | 1017.8 |
| 20260830115220 | 67 | 0 | 3.0 | 10.0 | 0.00 | 0.00 | 0.00 | 91 | 1017.9 |
| 20260830114719 | 67 | 0 | 3.0 | 11.0 | 0.00 | 0.00 | 0.00 | 91 | 1017.7 |
| 20260830114218 | 67 | 215 | 5.0 | 11.0 | 0.00 | 0.00 | 0.00 | 91 | 1017.8 |
| 20260830113719 | 67 | 0 | 6.0 | 11.0 | 0.00 | 0.00 | 0.00 | 91 | 1017.9 |
| 20260830113220 | 0 | 0.0 | 0.0 | 0.00 | 0.00 | 0.00 | 1018.0 |